Year,Month,Day,Hour,Minute,Value (Times are PST for insolation in W/m^2)
2018,03,24,00,00,0.00
2018,03,24,00,01,0.00
2018,03,24,00,02,0.00
2018,03,24,00,03,0.00
2018,03,24,00,04,0.00
2018,03,24,00,05,0.00
2018,03,24,00,06,0.00
2018,03,24,00,07,0.00
2018,03,24,00,08,0.00
2018,03,24,00,09,0.00
2018,03,24,00,10,0.00
2018,03,24,00,11,0.00
2018,03,24,00,12,0.00
2018,03,24,00,13,0.00
2018,03,24,00,14,0.00
2018,03,24,00,15,0.00
2018,03,24,00,16,0.00
2018,03,24,00,17,0.00
2018,03,24,00,18,0.00
2018,03,24,00,19,0.00
2018,03,24,00,20,0.00
2018,03,24,00,21,0.00
2018,03,24,00,22,0.00
2018,03,24,00,23,0.00
2018,03,24,00,24,0.00
2018,03,24,00,25,0.00
2018,03,24,00,26,0.00
2018,03,24,00,27,0.00
2018,03,24,00,28,0.00
2018,03,24,00,29,0.00
2018,03,24,00,30,0.00
2018,03,24,00,31,0.00
2018,03,24,00,32,0.00
2018,03,24,00,33,0.00
2018,03,24,00,34,0.00
2018,03,24,00,35,0.00
2018,03,24,00,36,0.00
2018,03,24,00,37,0.00
2018,03,24,00,38,0.00
2018,03,24,00,39,0.00
2018,03,24,00,40,0.00
2018,03,24,00,41,0.00
2018,03,24,00,42,0.00
2018,03,24,00,43,0.00
2018,03,24,00,44,0.00
2018,03,24,00,45,0.00
2018,03,24,00,46,0.00
2018,03,24,00,47,0.00
2018,03,24,00,48,0.00
2018,03,24,00,49,0.00
2018,03,24,00,50,0.00
2018,03,24,00,51,0.00
2018,03,24,00,52,0.00
2018,03,24,00,53,0.00
2018,03,24,00,54,0.00
2018,03,24,00,55,0.00
2018,03,24,00,56,0.00
2018,03,24,00,57,0.00
2018,03,24,00,58,0.00
2018,03,24,00,59,0.00
2018,03,24,01,00,0.00
2018,03,24,01,01,0.00
2018,03,24,01,02,0.00
2018,03,24,01,03,0.00
2018,03,24,01,04,0.00
2018,03,24,01,05,0.00
2018,03,24,01,06,0.00
2018,03,24,01,07,0.00
2018,03,24,01,08,0.00
2018,03,24,01,09,0.00
2018,03,24,01,10,0.00
2018,03,24,01,11,0.00
2018,03,24,01,12,0.00
2018,03,24,01,13,0.00
2018,03,24,01,14,0.00
2018,03,24,01,15,0.00
2018,03,24,01,16,0.00
2018,03,24,01,17,0.00
2018,03,24,01,18,0.00
2018,03,24,01,19,0.00
2018,03,24,01,20,0.00
2018,03,24,01,21,0.00
2018,03,24,01,22,0.00
2018,03,24,01,23,0.00
2018,03,24,01,24,0.00
2018,03,24,01,25,0.00
2018,03,24,01,26,0.00
2018,03,24,01,27,0.00
2018,03,24,01,28,0.00
2018,03,24,01,29,0.00
2018,03,24,01,30,0.00
2018,03,24,01,31,0.00
2018,03,24,01,32,0.00
2018,03,24,01,33,0.00
2018,03,24,01,34,0.00
2018,03,24,01,35,0.00
2018,03,24,01,36,0.00
2018,03,24,01,37,0.00
2018,03,24,01,38,0.00
2018,03,24,01,39,0.00
2018,03,24,01,40,0.00
2018,03,24,01,41,0.00
2018,03,24,01,42,0.00
2018,03,24,01,43,0.00
2018,03,24,01,44,0.00
2018,03,24,01,45,0.00
2018,03,24,01,46,0.00
2018,03,24,01,47,0.00
2018,03,24,01,48,0.00
2018,03,24,01,49,0.00
2018,03,24,01,50,0.00
2018,03,24,01,51,0.00
2018,03,24,01,52,0.00
2018,03,24,01,53,0.00
2018,03,24,01,54,0.00
2018,03,24,01,55,0.00
2018,03,24,01,56,0.00
2018,03,24,01,57,0.00
2018,03,24,01,58,0.00
2018,03,24,01,59,0.00
2018,03,24,02,00,0.00
2018,03,24,02,01,0.00
2018,03,24,02,02,0.00
2018,03,24,02,03,0.00
2018,03,24,02,04,0.00
2018,03,24,02,05,0.00
2018,03,24,02,06,0.00
2018,03,24,02,07,0.00
2018,03,24,02,08,0.00
2018,03,24,02,09,0.00
2018,03,24,02,10,0.00
2018,03,24,02,11,0.00
2018,03,24,02,12,0.00
2018,03,24,02,13,0.00
2018,03,24,02,14,0.00
2018,03,24,02,15,0.00
2018,03,24,02,16,0.00
2018,03,24,02,17,0.00
2018,03,24,02,18,0.00
2018,03,24,02,19,0.00
2018,03,24,02,20,0.00
2018,03,24,02,21,0.00
2018,03,24,02,22,0.00
2018,03,24,02,23,0.00
2018,03,24,02,24,0.00
2018,03,24,02,25,0.00
2018,03,24,02,26,0.00
2018,03,24,02,27,0.00
2018,03,24,02,28,0.00
2018,03,24,02,29,0.00
2018,03,24,02,30,0.00
2018,03,24,02,31,0.00
2018,03,24,02,32,0.00
2018,03,24,02,33,0.00
2018,03,24,02,34,0.00
2018,03,24,02,35,0.00
2018,03,24,02,36,0.00
2018,03,24,02,37,0.00
2018,03,24,02,38,0.00
2018,03,24,02,39,0.00
2018,03,24,02,40,0.00
2018,03,24,02,41,0.00
2018,03,24,02,42,0.00
2018,03,24,02,43,0.00
2018,03,24,02,44,0.00
2018,03,24,02,45,0.00
2018,03,24,02,46,0.00
2018,03,24,02,47,0.00
2018,03,24,02,48,0.00
2018,03,24,02,49,0.00
2018,03,24,02,50,0.00
2018,03,24,02,51,0.00
2018,03,24,02,52,0.00
2018,03,24,02,53,0.00
2018,03,24,02,54,0.00
2018,03,24,02,55,0.00
2018,03,24,02,56,0.00
2018,03,24,02,57,0.00
2018,03,24,02,58,0.00
2018,03,24,02,59,0.00
2018,03,24,03,00,0.00
2018,03,24,03,01,0.00
2018,03,24,03,02,0.00
2018,03,24,03,03,0.00
2018,03,24,03,04,0.00
2018,03,24,03,05,0.00
2018,03,24,03,06,0.00
2018,03,24,03,07,0.00
2018,03,24,03,08,0.00
2018,03,24,03,09,0.00
2018,03,24,03,10,0.00
2018,03,24,03,11,0.00
2018,03,24,03,12,0.00
2018,03,24,03,13,0.00
2018,03,24,03,14,0.00
2018,03,24,03,15,0.00
2018,03,24,03,16,0.00
2018,03,24,03,17,0.00
2018,03,24,03,18,0.00
2018,03,24,03,19,0.00
2018,03,24,03,20,0.00
2018,03,24,03,21,0.00
2018,03,24,03,22,0.00
2018,03,24,03,23,0.00
2018,03,24,03,24,0.00
2018,03,24,03,25,0.00
2018,03,24,03,26,0.00
2018,03,24,03,27,0.00
2018,03,24,03,28,0.00
2018,03,24,03,29,0.00
2018,03,24,03,30,0.00
2018,03,24,03,31,0.00
2018,03,24,03,32,0.00
2018,03,24,03,33,0.00
2018,03,24,03,34,0.00
2018,03,24,03,35,0.00
2018,03,24,03,36,0.00
2018,03,24,03,37,0.00
2018,03,24,03,38,0.00
2018,03,24,03,39,0.00
2018,03,24,03,40,0.00
2018,03,24,03,41,0.00
2018,03,24,03,42,0.00
2018,03,24,03,43,0.00
2018,03,24,03,44,0.00
2018,03,24,03,45,0.00
2018,03,24,03,46,0.00
2018,03,24,03,47,0.00
2018,03,24,03,48,0.00
2018,03,24,03,49,0.00
2018,03,24,03,50,0.00
2018,03,24,03,51,0.00
2018,03,24,03,52,0.00
2018,03,24,03,53,0.00
2018,03,24,03,54,0.00
2018,03,24,03,55,0.00
2018,03,24,03,56,0.00
2018,03,24,03,57,0.00
2018,03,24,03,58,0.00
2018,03,24,03,59,0.00
2018,03,24,04,00,0.00
2018,03,24,04,01,0.00
2018,03,24,04,02,0.00
2018,03,24,04,03,0.00
2018,03,24,04,04,0.00
2018,03,24,04,05,0.00
2018,03,24,04,06,0.00
2018,03,24,04,07,0.00
2018,03,24,04,08,0.00
2018,03,24,04,09,0.00
2018,03,24,04,10,0.00
2018,03,24,04,11,0.00
2018,03,24,04,12,0.00
2018,03,24,04,13,0.00
2018,03,24,04,14,0.00
2018,03,24,04,15,0.00
2018,03,24,04,16,0.00
2018,03,24,04,17,0.00
2018,03,24,04,18,0.00
2018,03,24,04,19,0.00
2018,03,24,04,20,0.00
2018,03,24,04,21,0.00
2018,03,24,04,22,0.00
2018,03,24,04,23,0.00
2018,03,24,04,24,0.00
2018,03,24,04,25,0.00
2018,03,24,04,26,0.00
2018,03,24,04,27,0.00
2018,03,24,04,28,0.00
2018,03,24,04,29,0.00
2018,03,24,04,30,0.00
2018,03,24,04,31,0.00
2018,03,24,04,32,0.00
2018,03,24,04,33,0.00
2018,03,24,04,34,0.00
2018,03,24,04,35,0.00
2018,03,24,04,36,0.00
2018,03,24,04,37,0.00
2018,03,24,04,38,0.00
2018,03,24,04,39,0.00
2018,03,24,04,40,0.00
2018,03,24,04,41,0.00
2018,03,24,04,42,0.00
2018,03,24,04,43,0.00
2018,03,24,04,44,0.00
2018,03,24,04,45,0.00
2018,03,24,04,46,0.00
2018,03,24,04,47,0.00
2018,03,24,04,48,0.00
2018,03,24,04,49,0.00
2018,03,24,04,50,0.00
2018,03,24,04,51,0.00
2018,03,24,04,52,0.00
2018,03,24,04,53,0.00
2018,03,24,04,54,0.00
2018,03,24,04,55,0.00
2018,03,24,04,56,0.00
2018,03,24,04,57,0.00
2018,03,24,04,58,0.00
2018,03,24,04,59,0.00
2018,03,24,05,00,0.00
2018,03,24,05,01,0.00
2018,03,24,05,02,0.00
2018,03,24,05,03,0.00
2018,03,24,05,04,0.00
2018,03,24,05,05,0.00
2018,03,24,05,06,0.00
2018,03,24,05,07,0.00
2018,03,24,05,08,0.00
2018,03,24,05,09,0.00
2018,03,24,05,10,0.00
2018,03,24,05,11,0.00
2018,03,24,05,12,0.00
2018,03,24,05,13,0.00
2018,03,24,05,14,0.00
2018,03,24,05,15,0.00
2018,03,24,05,16,0.00
2018,03,24,05,17,0.00
2018,03,24,05,18,0.00
2018,03,24,05,19,0.00
2018,03,24,05,20,0.00
2018,03,24,05,21,0.00
2018,03,24,05,22,0.00
2018,03,24,05,23,0.00
2018,03,24,05,24,0.00
2018,03,24,05,25,0.00
2018,03,24,05,26,0.00
2018,03,24,05,27,0.00
2018,03,24,05,28,0.00
2018,03,24,05,29,0.00
2018,03,24,05,30,0.00
2018,03,24,05,31,0.00
2018,03,24,05,32,0.00
2018,03,24,05,33,0.00
2018,03,24,05,34,0.00
2018,03,24,05,35,0.00
2018,03,24,05,36,0.00
2018,03,24,05,37,0.00
2018,03,24,05,38,0.00
2018,03,24,05,39,0.00
2018,03,24,05,40,0.00
2018,03,24,05,41,0.00
2018,03,24,05,42,0.00
2018,03,24,05,43,0.00
2018,03,24,05,44,0.00
2018,03,24,05,45,0.00
2018,03,24,05,46,0.00
2018,03,24,05,47,0.00
2018,03,24,05,48,0.00
2018,03,24,05,49,0.00
2018,03,24,05,50,0.00
2018,03,24,05,51,0.00
2018,03,24,05,52,0.00
2018,03,24,05,53,0.00
2018,03,24,05,54,0.00
2018,03,24,05,55,0.00
2018,03,24,05,56,0.00
2018,03,24,05,57,0.00
2018,03,24,05,58,0.00
2018,03,24,05,59,0.00
2018,03,24,06,00,0.00
2018,03,24,06,01,0.00
2018,03,24,06,02,0.00
2018,03,24,06,03,0.00
2018,03,24,06,04,0.00
2018,03,24,06,05,0.00
2018,03,24,06,06,0.00
2018,03,24,06,07,0.00
2018,03,24,06,08,0.00
2018,03,24,06,09,0.00
2018,03,24,06,10,0.00
2018,03,24,06,11,0.00
2018,03,24,06,12,0.00
2018,03,24,06,13,0.00
2018,03,24,06,14,0.00
2018,03,24,06,15,0.00
2018,03,24,06,16,0.00
2018,03,24,06,17,0.00
2018,03,24,06,18,0.00
2018,03,24,06,19,0.00
2018,03,24,06,20,0.00
2018,03,24,06,21,0.00
2018,03,24,06,22,0.00
2018,03,24,06,23,0.00
2018,03,24,06,24,0.00
2018,03,24,06,25,0.00
2018,03,24,06,26,0.00
2018,03,24,06,27,0.00
2018,03,24,06,28,0.00
2018,03,24,06,29,0.00
2018,03,24,06,30,0.00
2018,03,24,06,31,0.00
2018,03,24,06,32,0.00
2018,03,24,06,33,0.00
2018,03,24,06,34,0.00
2018,03,24,06,35,0.00
2018,03,24,06,36,0.00
2018,03,24,06,37,0.00
2018,03,24,06,38,0.00
2018,03,24,06,39,0.00
2018,03,24,06,40,0.00
2018,03,24,06,41,0.00
2018,03,24,06,42,0.00
2018,03,24,06,43,0.00
2018,03,24,06,44,0.00
2018,03,24,06,45,0.00
2018,03,24,06,46,0.00
2018,03,24,06,47,0.00
2018,03,24,06,48,0.00
2018,03,24,06,49,0.00
2018,03,24,06,50,0.00
2018,03,24,06,51,0.00
2018,03,24,06,52,0.00
2018,03,24,06,53,0.00
2018,03,24,06,54,0.00
2018,03,24,06,55,0.00
2018,03,24,06,56,0.00
2018,03,24,06,57,0.00
2018,03,24,06,58,0.00
2018,03,24,06,59,0.00
2018,03,24,07,00,0.00
2018,03,24,07,01,0.00
2018,03,24,07,02,0.00
2018,03,24,07,03,0.00
2018,03,24,07,04,0.00
2018,03,24,07,05,0.00
2018,03,24,07,06,0.00
2018,03,24,07,07,0.00
2018,03,24,07,08,0.00
2018,03,24,07,09,0.00
2018,03,24,07,10,0.00
2018,03,24,07,11,0.00
2018,03,24,07,12,0.00
2018,03,24,07,13,0.00
2018,03,24,07,14,0.00
2018,03,24,07,15,0.00
2018,03,24,07,16,0.00
2018,03,24,07,17,0.00
2018,03,24,07,18,0.00
2018,03,24,07,19,1.90
2018,03,24,07,20,5.00
2018,03,24,07,21,5.00
2018,03,24,07,22,5.00
2018,03,24,07,23,5.00
2018,03,24,07,24,6.30
2018,03,24,07,25,7.00
2018,03,24,07,26,7.00
2018,03,24,07,27,7.00
2018,03,24,07,28,7.00
2018,03,24,07,29,8.90
2018,03,24,07,30,9.00
2018,03,24,07,31,9.00
2018,03,24,07,32,9.50
2018,03,24,07,33,11.00
2018,03,24,07,34,11.00
2018,03,24,07,35,11.40
2018,03,24,07,36,12.00
2018,03,24,07,37,12.00
2018,03,24,07,38,13.20
2018,03,24,07,39,14.00
2018,03,24,07,40,14.00
2018,03,24,07,41,14.00
2018,03,24,07,42,15.70
2018,03,24,07,43,16.00
2018,03,24,07,44,16.00
2018,03,24,07,45,16.30
2018,03,24,07,46,18.00
2018,03,24,07,47,18.00
2018,03,24,07,48,18.30
2018,03,24,07,49,19.00
2018,03,24,07,50,19.00
2018,03,24,07,51,20.00
2018,03,24,07,52,21.00
2018,03,24,07,53,21.00
2018,03,24,07,54,22.40
2018,03,24,07,55,23.00
2018,03,24,07,56,23.00
2018,03,24,07,57,23.00
2018,03,24,07,58,23.00
2018,03,24,07,59,25.00
2018,03,24,08,00,25.00
2018,03,24,08,01,25.20
2018,03,24,08,02,26.50
2018,03,24,08,03,28.00
2018,03,24,08,04,28.80
2018,03,24,08,05,30.90
2018,03,24,08,06,32.00
2018,03,24,08,07,32.50
2018,03,24,08,08,33.00
2018,03,24,08,09,33.00
2018,03,24,08,10,33.00
2018,03,24,08,11,33.00
2018,03,24,08,12,34.70
2018,03,24,08,13,35.00
2018,03,24,08,14,37.10
2018,03,24,08,15,39.30
2018,03,24,08,16,42.70
2018,03,24,08,17,47.20
2018,03,24,08,18,52.00
2018,03,24,08,19,56.30
2018,03,24,08,20,61.30
2018,03,24,08,21,65.90
2018,03,24,08,22,71.70
2018,03,24,08,23,75.90
2018,03,24,08,24,77.00
2018,03,24,08,25,78.50
2018,03,24,08,26,82.20
2018,03,24,08,27,89.00
2018,03,24,08,28,104.30
2018,03,24,08,29,113.60
2018,03,24,08,30,104.60
2018,03,24,08,31,102.40
2018,03,24,08,32,102.30
2018,03,24,08,33,97.30
2018,03,24,08,34,98.70
2018,03,24,08,35,101.70
2018,03,24,08,36,104.00
2018,03,24,08,37,104.60
2018,03,24,08,38,108.70
2018,03,24,08,39,114.40
2018,03,24,08,40,113.70
2018,03,24,08,41,111.40
2018,03,24,08,42,124.70
2018,03,24,08,43,107.00
2018,03,24,08,44,96.90
2018,03,24,08,45,94.70
2018,03,24,08,46,92.40
2018,03,24,08,47,89.00
2018,03,24,08,48,85.40
2018,03,24,08,49,84.00
2018,03,24,08,50,84.00
2018,03,24,08,51,85.00
2018,03,24,08,52,87.10
2018,03,24,08,53,89.90
2018,03,24,08,54,92.40
2018,03,24,08,55,96.00
2018,03,24,08,56,97.80
2018,03,24,08,57,101.40
2018,03,24,08,58,104.70
2018,03,24,08,59,109.20
2018,03,24,09,00,114.80
2018,03,24,09,01,120.60
2018,03,24,09,02,124.20
2018,03,24,09,03,129.30
2018,03,24,09,04,133.10
2018,03,24,09,05,136.70
2018,03,24,09,06,140.00
2018,03,24,09,07,141.50
2018,03,24,09,08,143.20
2018,03,24,09,09,144.00
2018,03,24,09,10,145.50
2018,03,24,09,11,147.60
2018,03,24,09,12,148.90
2018,03,24,09,13,150.80
2018,03,24,09,14,155.10
2018,03,24,09,15,158.50
2018,03,24,09,16,162.20
2018,03,24,09,17,163.50
2018,03,24,09,18,166.90
2018,03,24,09,19,174.00
2018,03,24,09,20,183.70
2018,03,24,09,21,188.00
2018,03,24,09,22,185.40
2018,03,24,09,23,186.90
2018,03,24,09,24,188.00
2018,03,24,09,25,182.70
2018,03,24,09,26,179.40
2018,03,24,09,27,174.70
2018,03,24,09,28,171.30
2018,03,24,09,29,168.90
2018,03,24,09,30,167.30
2018,03,24,09,31,169.00
2018,03,24,09,32,168.50
2018,03,24,09,33,166.40
2018,03,24,09,34,165.00
2018,03,24,09,35,165.00
2018,03,24,09,36,166.00
2018,03,24,09,37,168.10
2018,03,24,09,38,177.70
2018,03,24,09,39,186.40
2018,03,24,09,40,178.90
2018,03,24,09,41,172.00
2018,03,24,09,42,169.30
2018,03,24,09,43,167.10
2018,03,24,09,44,165.00
2018,03,24,09,45,165.00
2018,03,24,09,46,165.40
2018,03,24,09,47,167.00
2018,03,24,09,48,167.00
2018,03,24,09,49,166.30
2018,03,24,09,50,164.10
2018,03,24,09,51,163.00
2018,03,24,09,52,163.00
2018,03,24,09,53,164.20
2018,03,24,09,54,163.00
2018,03,24,09,55,167.10
2018,03,24,09,56,165.80
2018,03,24,09,57,162.40
2018,03,24,09,58,164.90
2018,03,24,09,59,155.00
2018,03,24,10,00,154.80
2018,03,24,10,01,153.90
2018,03,24,10,02,162.30
2018,03,24,10,03,182.60
2018,03,24,10,04,199.40
2018,03,24,10,05,192.70
2018,03,24,10,06,187.30
2018,03,24,10,07,188.70
2018,03,24,10,08,191.60
2018,03,24,10,09,199.70
2018,03,24,10,10,228.90
2018,03,24,10,11,239.00
2018,03,24,10,12,436.80
2018,03,24,10,13,455.60
2018,03,24,10,14,450.50
2018,03,24,10,15,461.00
2018,03,24,10,16,442.90
2018,03,24,10,17,381.00
2018,03,24,10,18,431.90
2018,03,24,10,19,430.40
2018,03,24,10,20,399.10
2018,03,24,10,21,404.00
2018,03,24,10,22,411.10
2018,03,24,10,23,386.00
2018,03,24,10,24,381.00
2018,03,24,10,25,456.40
2018,03,24,10,26,489.70
2018,03,24,10,27,424.30
2018,03,24,10,28,475.70
2018,03,24,10,29,504.50
2018,03,24,10,30,515.40
2018,03,24,10,31,519.50
2018,03,24,10,32,522.50
2018,03,24,10,33,523.40
2018,03,24,10,34,520.10
2018,03,24,10,35,516.10
2018,03,24,10,36,517.00
2018,03,24,10,37,520.70
2018,03,24,10,38,525.10
2018,03,24,10,39,529.70
2018,03,24,10,40,531.00
2018,03,24,10,41,533.40
2018,03,24,10,42,535.70
2018,03,24,10,43,537.80
2018,03,24,10,44,540.10
2018,03,24,10,45,543.00
2018,03,24,10,46,543.90
2018,03,24,10,47,547.80
2018,03,24,10,48,546.40
2018,03,24,10,49,545.80
2018,03,24,10,50,549.10
2018,03,24,10,51,553.50
2018,03,24,10,52,557.30
2018,03,24,10,53,559.00
2018,03,24,10,54,560.30
2018,03,24,10,55,561.00
2018,03,24,10,56,559.40
2018,03,24,10,57,560.70
2018,03,24,10,58,562.90
2018,03,24,10,59,566.20
2018,03,24,11,00,570.30
2018,03,24,11,01,573.80
2018,03,24,11,02,578.20
2018,03,24,11,03,582.90
2018,03,24,11,04,585.00
2018,03,24,11,05,587.60
2018,03,24,11,06,591.00
2018,03,24,11,07,592.70
2018,03,24,11,08,595.20
2018,03,24,11,09,596.00
2018,03,24,11,10,594.50
2018,03,24,11,11,592.40
2018,03,24,11,12,591.10
2018,03,24,11,13,591.90
2018,03,24,11,14,594.20
2018,03,24,11,15,598.10
2018,03,24,11,16,599.40
2018,03,24,11,17,602.20
2018,03,24,11,18,606.00
2018,03,24,11,19,607.50
2018,03,24,11,20,611.30
2018,03,24,11,21,616.80
2018,03,24,11,22,623.70
2018,03,24,11,23,627.90
2018,03,24,11,24,631.70
2018,03,24,11,25,633.00
2018,03,24,11,26,635.40
2018,03,24,11,27,641.20
2018,03,24,11,28,646.80
2018,03,24,11,29,652.10
2018,03,24,11,30,654.20
2018,03,24,11,31,656.20
2018,03,24,11,32,658.40
2018,03,24,11,33,664.60
2018,03,24,11,34,669.10
2018,03,24,11,35,675.70
2018,03,24,11,36,685.30
2018,03,24,11,37,692.80
2018,03,24,11,38,698.50
2018,03,24,11,39,705.50
2018,03,24,11,40,708.00
2018,03,24,11,41,709.60
2018,03,24,11,42,710.00
2018,03,24,11,43,707.10
2018,03,24,11,44,702.90
2018,03,24,11,45,701.20
2018,03,24,11,46,703.90
2018,03,24,11,47,709.70
2018,03,24,11,48,719.00
2018,03,24,11,49,731.90
2018,03,24,11,50,740.00
2018,03,24,11,51,754.00
2018,03,24,11,52,757.90
2018,03,24,11,53,752.00
2018,03,24,11,54,511.30
2018,03,24,11,55,330.80
2018,03,24,11,56,300.70
2018,03,24,11,57,223.00
2018,03,24,11,58,207.20
2018,03,24,11,59,207.00
2018,03,24,12,00,209.20
2018,03,24,12,01,225.30
2018,03,24,12,02,207.80
2018,03,24,12,03,220.90
2018,03,24,12,04,257.50
2018,03,24,12,05,318.00
2018,03,24,12,06,265.50
2018,03,24,12,07,242.10
2018,03,24,12,08,286.90
2018,03,24,12,09,278.30
2018,03,24,12,10,288.80
2018,03,24,12,11,297.00
2018,03,24,12,12,297.00
2018,03,24,12,13,718.90
2018,03,24,12,14,641.40
2018,03,24,12,15,570.00
2018,03,24,12,16,546.20
2018,03,24,12,17,460.00
2018,03,24,12,18,521.00
2018,03,24,12,19,506.00
2018,03,24,12,20,499.10
2018,03,24,12,21,530.00
2018,03,24,12,22,590.00
2018,03,24,12,23,632.90
2018,03,24,12,24,666.70
2018,03,24,12,25,653.20
2018,03,24,12,26,633.70
2018,03,24,12,27,613.00
2018,03,24,12,28,614.50
2018,03,24,12,29,581.00
2018,03,24,12,30,547.50
2018,03,24,12,31,455.30
2018,03,24,12,32,427.00
2018,03,24,12,33,479.50
2018,03,24,12,34,579.40
2018,03,24,12,35,598.90
2018,03,24,12,36,671.50
2018,03,24,12,37,660.70
2018,03,24,12,38,623.80
2018,03,24,12,39,647.70
2018,03,24,12,40,711.00
2018,03,24,12,41,750.30
2018,03,24,12,42,766.30
2018,03,24,12,43,774.40
2018,03,24,12,44,775.00
2018,03,24,12,45,723.70
2018,03,24,12,46,399.00
2018,03,24,12,47,399.00
2018,03,24,12,48,433.70
2018,03,24,12,49,508.00
2018,03,24,12,50,631.00
2018,03,24,12,51,799.00
2018,03,24,12,52,805.30
2018,03,24,12,53,799.60
2018,03,24,12,54,790.90
2018,03,24,12,55,789.00
2018,03,24,12,56,797.90
2018,03,24,12,57,824.00
2018,03,24,12,58,828.00
2018,03,24,12,59,643.00
2018,03,24,13,00,656.90
2018,03,24,13,01,795.70
2018,03,24,13,02,826.00
2018,03,24,13,03,643.00
2018,03,24,13,04,251.00
2018,03,24,13,05,493.60
2018,03,24,13,06,809.50
2018,03,24,13,07,810.60
2018,03,24,13,08,828.10
2018,03,24,13,09,835.00
2018,03,24,13,10,835.00
2018,03,24,13,11,835.00
2018,03,24,13,12,925.00
2018,03,24,13,13,956.40
2018,03,24,13,14,970.30
2018,03,24,13,15,973.90
2018,03,24,13,16,958.80
2018,03,24,13,17,979.00
2018,03,24,13,18,979.00
2018,03,24,13,19,849.10
2018,03,24,13,20,656.90
2018,03,24,13,21,665.30
2018,03,24,13,22,642.10
2018,03,24,13,23,638.00
2018,03,24,13,24,698.00
2018,03,24,13,25,726.00
2018,03,24,13,26,726.00
2018,03,24,13,27,726.00
2018,03,24,13,28,1022.20
2018,03,24,13,29,1074.60
2018,03,24,13,30,1085.90
2018,03,24,13,31,1084.20
2018,03,24,13,32,1075.50
2018,03,24,13,33,1050.60
2018,03,24,13,34,1032.00
2018,03,24,13,35,937.70
2018,03,24,13,36,812.00
2018,03,24,13,37,812.00
2018,03,24,13,38,812.00
2018,03,24,13,39,812.00
2018,03,24,13,40,481.30
2018,03,24,13,41,372.30
2018,03,24,13,42,363.20
2018,03,24,13,43,346.80
2018,03,24,13,44,348.60
2018,03,24,13,45,358.90
2018,03,24,13,46,347.10
2018,03,24,13,47,347.50
2018,03,24,13,48,366.50
2018,03,24,13,49,380.20
2018,03,24,13,50,395.10
2018,03,24,13,51,437.00
2018,03,24,13,52,473.70
2018,03,24,13,53,437.00
2018,03,24,13,54,421.00
2018,03,24,13,55,407.50
2018,03,24,13,56,382.40
2018,03,24,13,57,362.50
2018,03,24,13,58,345.70
2018,03,24,13,59,332.20
2018,03,24,14,00,322.90
2018,03,24,14,01,322.00
2018,03,24,14,02,322.00
2018,03,24,14,03,321.40
2018,03,24,14,04,318.50
2018,03,24,14,05,313.90
2018,03,24,14,06,309.60
2018,03,24,14,07,305.80
2018,03,24,14,08,302.80
2018,03,24,14,09,297.30
2018,03,24,14,10,295.00
2018,03,24,14,11,295.00
2018,03,24,14,12,298.50
2018,03,24,14,13,300.90
2018,03,24,14,14,303.90
2018,03,24,14,15,304.00
2018,03,24,14,16,301.70
2018,03,24,14,17,293.20
2018,03,24,14,18,302.40
2018,03,24,14,19,326.50
2018,03,24,14,20,345.00
2018,03,24,14,21,446.00
2018,03,24,14,22,560.70
2018,03,24,14,23,593.90
2018,03,24,14,24,658.50
2018,03,24,14,25,682.00
2018,03,24,14,26,520.10
2018,03,24,14,27,482.00
2018,03,24,14,28,625.80
2018,03,24,14,29,638.80
2018,03,24,14,30,754.40
2018,03,24,14,31,759.50
2018,03,24,14,32,767.00
2018,03,24,14,33,771.00
2018,03,24,14,34,774.50
2018,03,24,14,35,777.90
2018,03,24,14,36,762.30
2018,03,24,14,37,720.50
2018,03,24,14,38,704.70
2018,03,24,14,39,755.00
2018,03,24,14,40,797.90
2018,03,24,14,41,805.00
2018,03,24,14,42,805.00
2018,03,24,14,43,354.50
2018,03,24,14,44,276.00
2018,03,24,14,45,263.50
2018,03,24,14,46,324.40
2018,03,24,14,47,375.10
2018,03,24,14,48,434.20
2018,03,24,14,49,486.60
2018,03,24,14,50,537.30
2018,03,24,14,51,574.00
2018,03,24,14,52,525.60
2018,03,24,14,53,487.00
2018,03,24,14,54,613.70
2018,03,24,14,55,684.30
2018,03,24,14,56,661.90
2018,03,24,14,57,687.70
2018,03,24,14,58,693.90
2018,03,24,14,59,700.90
2018,03,24,15,00,698.30
2018,03,24,15,01,702.10
2018,03,24,15,02,707.20
2018,03,24,15,03,708.00
2018,03,24,15,04,710.20
2018,03,24,15,05,714.00
2018,03,24,15,06,714.50
2018,03,24,15,07,712.30
2018,03,24,15,08,689.60
2018,03,24,15,09,643.00
2018,03,24,15,10,615.80
2018,03,24,15,11,606.30
2018,03,24,15,12,668.40
2018,03,24,15,13,658.10
2018,03,24,15,14,614.70
2018,03,24,15,15,568.40
2018,03,24,15,16,563.00
2018,03,24,15,17,524.50
2018,03,24,15,18,497.40
2018,03,24,15,19,464.20
2018,03,24,15,20,476.40
2018,03,24,15,21,500.30
2018,03,24,15,22,488.20
2018,03,24,15,23,467.00
2018,03,24,15,24,462.00
2018,03,24,15,25,387.30
2018,03,24,15,26,407.70
2018,03,24,15,27,477.60
2018,03,24,15,28,545.10
2018,03,24,15,29,567.20
2018,03,24,15,30,590.90
2018,03,24,15,31,586.70
2018,03,24,15,32,596.30
2018,03,24,15,33,580.80
2018,03,24,15,34,573.10
2018,03,24,15,35,604.10
2018,03,24,15,36,624.00
2018,03,24,15,37,630.70
2018,03,24,15,38,625.90
2018,03,24,15,39,624.00
2018,03,24,15,40,624.00
2018,03,24,15,41,625.60
2018,03,24,15,42,628.60
2018,03,24,15,43,632.80
2018,03,24,15,44,638.30
2018,03,24,15,45,645.70
2018,03,24,15,46,650.80
2018,03,24,15,47,655.20
2018,03,24,15,48,660.30
2018,03,24,15,49,664.10
2018,03,24,15,50,667.70
2018,03,24,15,51,670.00
2018,03,24,15,52,670.00
2018,03,24,15,53,668.80
2018,03,24,15,54,665.30
2018,03,24,15,55,661.70
2018,03,24,15,56,657.00
2018,03,24,15,57,650.80
2018,03,24,15,58,645.20
2018,03,24,15,59,639.70
2018,03,24,16,00,632.30
2018,03,24,16,01,626.90
2018,03,24,16,02,620.80
2018,03,24,16,03,615.40
2018,03,24,16,04,611.20
2018,03,24,16,05,608.30
2018,03,24,16,06,604.50
2018,03,24,16,07,601.90
2018,03,24,16,08,595.40
2018,03,24,16,09,590.00
2018,03,24,16,10,585.20
2018,03,24,16,11,579.10
2018,03,24,16,12,572.00
2018,03,24,16,13,566.20
2018,03,24,16,14,560.80
2018,03,24,16,15,556.70
2018,03,24,16,16,554.00
2018,03,24,16,17,549.50
2018,03,24,16,18,547.00
2018,03,24,16,19,543.50
2018,03,24,16,20,539.70
2018,03,24,16,21,537.00
2018,03,24,16,22,534.90
2018,03,24,16,23,533.40
2018,03,24,16,24,531.60
2018,03,24,16,25,529.50
2018,03,24,16,26,526.60
2018,03,24,16,27,522.60
2018,03,24,16,28,519.10
2018,03,24,16,29,516.80
2018,03,24,16,30,511.50
2018,03,24,16,31,507.60
2018,03,24,16,32,505.30
2018,03,24,16,33,501.70
2018,03,24,16,34,498.20
2018,03,24,16,35,495.70
2018,03,24,16,36,492.10
2018,03,24,16,37,488.40
2018,03,24,16,38,485.80
2018,03,24,16,39,481.60
2018,03,24,16,40,477.00
2018,03,24,16,41,475.20
2018,03,24,16,42,471.50
2018,03,24,16,43,468.10
2018,03,24,16,44,463.90
2018,03,24,16,45,460.50
2018,03,24,16,46,456.60
2018,03,24,16,47,454.30
2018,03,24,16,48,451.40
2018,03,24,16,49,448.50
2018,03,24,16,50,444.70
2018,03,24,16,51,442.00
2018,03,24,16,52,439.30
2018,03,24,16,53,435.50
2018,03,24,16,54,432.60
2018,03,24,16,55,429.70
2018,03,24,16,56,427.40
2018,03,24,16,57,422.70
2018,03,24,16,58,420.10
2018,03,24,16,59,418.00
2018,03,24,17,00,416.70
2018,03,24,17,01,414.20
2018,03,24,17,02,410.80
2018,03,24,17,03,408.70
2018,03,24,17,04,405.20
2018,03,24,17,05,403.60
2018,03,24,17,06,401.00
2018,03,24,17,07,397.90
2018,03,24,17,08,396.40
2018,03,24,17,09,396.00
2018,03,24,17,10,393.10
2018,03,24,17,11,390.40
2018,03,24,17,12,387.40
2018,03,24,17,13,381.30
2018,03,24,17,14,379.90
2018,03,24,17,15,377.60
2018,03,24,17,16,373.80